[Date Prev][Date Next][Thread Prev][Thread Next] - [Date Index][Thread Index][Author Index]

2 Line ISS Keps 12-1



ISS
1 25544U 98067A   03335.42297454  .00032225  00000-0  32504-3 0  8362
2 25544  51.6310 256.5565 0005955 195.0139 310.3893 15.65047471287143


----
Via the sarex mailing list at AMSAT.ORG courtesy of AMSAT-NA.
To unsubscribe, send "unsubscribe sarex" to Majordomo@amsat.org



AMSAT Top AMSAT Home